Regional Weather Roundup
Issued by NWS

Home | Current Version | Previous Version | Text Only | Print | Product List | Glossary On
Versions: 1 2 3 4 5 6 7 8 9 10 11 12 13 14 15 16 17 18 19 20 21 22 23 24 25 26 27 28 29 30 31 32 33 34 35 36 37 38 39 40 41 42 43 44 45 46 47 48 49 50
000
ASUS43 KDTX 242210
RWRMI
MICHIGAN HOURLY REGIONAL WEATHER ROUNDUP
NATIONAL WEATHER SERVICE DETROIT/PONTIAC MI
500 PM EST SAT FEB 24 2018

NOTE: "FAIR" INDICATES FEW OR NO CLOUDS BELOW 12,000 FEET WITH NO
SIGNIFICANT WEATHER AND/OR OBSTRUCTION TO VISIBILITY.

MIZ047>049-052>055-059>063-066>070-074>076-081>083-242300-
SOUTHEAST LOWER MICHIGAN

CITY           SKY/WX    TMP DP  RH WIND       PRES   REMARKS
ADRIAN         CLOUDY    39  31  72 SE15      30.05F WCI  31
ALMA           CLOUDY    36  32  86 E15       30.07F WCI  27
ANN ARBOR      CLOUDY    39  32  76 NE12      30.06F WCI  32
BAD AXE        CLOUDY    32  26  77 NE9       30.13F WCI  24
CARO           CLOUDY    34  28  77 E9        30.09F WCI  27
DETROIT CITY   PTSUNNY   38  31  76 NE10      30.09F WCI  31
DETROIT        CLOUDY    40  32  73 E12       30.08F WCI  33
FLINT          PTSUNNY   36  29  75 E14       30.08F WCI  27
GROSSE ILE     CLOUDY    40  33  76 E8        30.07F WCI  35
HILLSDALE      CLOUDY    37  32  81 E12G21    30.00F WCI  30
HOWELL         PTSUNNY   38  31  76 E12       30.05S WCI  30

CITY           SKY/WX    TMP DP  RH WIND       PRES   REMARKS
JACKSON        CLOUDY    40  33  76 E10       30.02F WCI  33
LAMBERTVILLE   CLOUDY    37  31  77 E8G18     30.07S WCI  31
LANSING        CLOUDY    39  32  76 E20       30.04F WCI  29
LAPEER         CLOUDY    36  28  75 E8        30.09F WCI  29
MASON          CLOUDY    40  31  68 E13       30.04F WCI  33
MONROE         CLOUDY    38  31  77 E12G18    30.07S WCI  30
MT. CLEMENS    CLOUDY    38  36  92 NE8       30.09F WCI  32
PONTIAC        CLOUDY    37  29  72 E10       30.06F WCI  30
PORT HOPE        N/A     32  26  78 E13       30.13F WCI  22
PORT HURON     CLOUDY    34  28  80 NE7       30.12F WCI  28
TRI CITIES     CLOUDY    36  29  75 E12       30.09F WCI  28
MIDLAND        CLOUDY    34  29  81 E10       30.09F WCI  26
TROY           CLOUDY    39  32  76 E8        30.10F WCI  33
SAGINAW HB     CLOUDY    36  30  80 E12       30.09F WCI  27
$$
MIZ043>046-050>051-056>058-064>065-071>073-077>080-242300-
SOUTHWEST LOWER MICHIGAN

CITY           SKY/WX    TMP DP  RH WIND       PRES   REMARKS
BATTLE CREEK   CLOUDY    42  33  70 E13       29.99F
BENTON HARBOR  CLOUDY    43  36  76 E15       29.93F
BIG RAPIDS     CLOUDY    36  27  71 E16G22    30.02F WCI  26
COLDWATER      CLOUDY    40  35  80 E15       29.99S WCI  32
FREMONT        CLOUDY    37  27  66 E16G23    30.00S WCI  27
HOLLAND        CLOUDY    43  34  70 SE17G23   29.95F
GRAND RAPIDS   CLOUDY    41  33  73 E17       29.99F
IONIA          PTSUNNY   38  32  78 E13G22    30.02S WCI  30
KALAMAZOO      CLOUDY    42  34  73 E12G20    29.99F
LUDINGTON      CLOUDY    41  30  65 E9        29.96F
MARSHALL       CLOUDY    40  33  75 E10       30.00S WCI  34
MOUNT PLEASANT CLOUDY    36  28  73 E8        30.06F WCI  29
MUSKEGON       CLOUDY    42  30  62 E14G24    29.95F
SOUTH HAVEN    CLOUDY    44  36  73 SE12      29.94F
$$
MIZ016>042-242300-
NORTHERN LOWER MICHIGAN

CITY           SKY/WX    TMP DP  RH WIND       PRES   REMARKS
ALPENA         FAIR      32  24  72 SE12      30.15F WCI  23
BEAVER ISLAND  FAIR      32  24  71 E8        30.08F WCI  25
BELLAIRE       FAIR      41  27  57 E6        30.04F
CADILLAC       CLOUDY    36  27  69 SE13      30.00F WCI  27
CHARLEVOIX     FAIR      38  24  58 NE5       30.08F WCI  34
FRANKFORT      PTSUNNY   43  26  50 E7        29.99F
GAYLORD        FAIR      36  24  62 VRB6      30.04F WCI  31
GRAYLING       PTSUNNY   37  26  63 SE9       30.04F WCI  31
HARBOR SPRINGS FAIR      36  23  60 E12       30.07F WCI  28
HOUGHTON LAKE  FAIR      34  24  67 E16       30.05F WCI  24
MANISTEE       PTSUNNY   41  26  55 E15G21    29.97F
OSCODA         CLOUDY    32  23  68 E7        30.14F WCI  26
PELLSTON       FAIR      35  23  61 NE8       30.08F WCI  29
ROGERS CITY    FAIR      32  24  72 E12       30.14F WCI  23
TRAVERSE CITY  CLOUDY    43  25  49 E12       30.02F
$$
MIZ007>008-015-242300-
EASTERN UPPER MICHIGAN

CITY           SKY/WX    TMP DP  RH WIND       PRES   REMARKS
KINROSS        FAIR      34  19  54 E10       30.10F WCI  26
MACKINAC ISLAN FAIR      31  24  74 E10G18    30.10F WCI  22
NEWBERRY       FAIR      33  19  57 SE7       30.06F WCI  27
S. S. MARIE    FAIR      36  19  50 SE8       30.11F WCI  30
MUNISING         N/A     38  21  50 MISG      30.03F
$$
MIZ004>006-011>014-085-242300-
CENTRAL UPPER MICHIGAN

CITY           SKY/WX    TMP DP  RH WIND       PRES   REMARKS
MANISTIQUE     FAIR      32  24  71 E9        30.07F WCI  24
ESCANABA       FAIR      32  24  72 SE12      30.06F WCI  23
MENOMINEE      CLOUDY    32  24  72 E14       30.03F WCI  22
SAWYER-GWINN   SUNNY     36  16  44 SE8       30.01F WCI  29
$$
MIZ001>003-009>011-084-242300-
WESTERN UPPER MICHIGAN

CITY           SKY/WX    TMP DP  RH WIND       PRES   REMARKS
IRON MOUNTAIN  CLOUDY    34  21  59 E13       29.96F WCI  25
HOUGHTON       FAIR      30  19  63 E12       29.97F WCI  20
COPPER HARBOR    N/A     31  20  63 VRB5      30.04F WCI  26
IRONWOOD       PTSUNNY   34  17  50 E12       29.90F WCI  25
$$

ABBREVIATIONS USED IN REMARKS
   TC - TEMPERATURE IN CELSIUS
  WCI - WIND CHILL INDEX
   HX - HEAT INDEX
  VSB - VISIBILITY




USA.gov is the U.S. government's official web portal to all federal, state and local government web resources and services.